sat.trackr.live / text

‹ back to catalog

STARLINK-4640

NORAD 53728 · 2022-107AE

PAYLOAD ACTIVE UNKNOWN

§ Identity

Operator
Country
US
Launch date
2022-09-05
Launch site
AFETR
Launch vehicle
Mass (kg)
RCS (m²)

Purposes: comms

External: N2YO · Heavens-Above · Gunter

§ Orbital elements

Epoch: 2026-05-24T17:30:11.917440Z

Period
95.44 min
Inclination
53.2136°
Eccentricity
0.0001496
Mean motion
15.08831468 rev/d
Perigee alt
538.7 km
Apogee alt
540.8 km
Semi-major
6,917.9 km
B*
1.1382e-4
RAAN
272.7166°
Arg perigee
95.9722°
Mean anomaly
264.1441°
Rev number
20,603

§ Raw data

STARLINK-46401 53728U 22107AE  26144.72930460  .00001524  00000+0  11382-3 0  99942 53728  53.2136 272.7166 0001496  95.9722 264.1441 15.08831468206039

JSON: /api/v1/satellites/53728 · /tle

For live sub-satellite position, see the globe view (requires WebGL).

§ Visibility from observer

Set your observer location to see the next 7 days of passes ≥ 10°. The values pass through the URL so the page stays shareable.

No JS? Fill the form by hand. The geolocation button needs JavaScript.